(227811) = 2000 DB89 = 2007 BW43

Discovered at Catalina on 2007-01-24 by CSS.

Orbit

Orbit type: Main Belt

Note: WebGL enabled browser required.

epoch2023-09-13.0
epoch JD2460200.5
perihelion date2021-02-08.32673
perihelion JD2459253.82673
argument of perihelion (°)342.75944
ascending node (°)149.44776
inclination (°)1.51389
eccentricity0.1507470
perihelion distance (AU)1.9638526
Tisserand w.r.t. Jupiter3.6
ΔV w.r.t. Earth (km/sec)8.7
semimajor axis (AU)2.3124472
mean anomaly (°)265.33603
mean daily motion (°/day)0.28028260
aphelion distance (AU)2.661
period (years)3.52
P-vector [x]-0.67186625
P-vector [y]0.68263045
P-vector [z]0.28742200
Q-vector [x]-0.74055073
Q-vector [y]-0.62615040
Q-vector [z]-0.24396779
absolute magnitude18.15
phase slope0.15
uncertainty0
referenceMPEC 2024-A65
observations used290
oppositions10
arc length (days)8733
first opposition used2000
last opposition used2024
residual rms (arc-secs)0.66
perturbers coarse indicatorM-v
perturbers precise indicator003Ek
first observation date used2000-02-08.0
last observation date used2024-01-06.0
computer nameMPCLINUX
JD of orbit computation2456760.921269
perihelion JD uncertainty (days)9.0408E-05
argument of perihelion uncertainty (°)1.3482E-04
ascending node uncertainty (°)1.3034E-04
inclination uncertainty (°)8.3350E-06
eccentricity uncertainty 9.8997E-08
perihelion distance uncertainty (AU)2.3128E-07
Minimum Orbit Intersection Distances (in AU)
for orbit epoch: 2460200.5, reference: E2024-A65
Mercury1.62468
Venus1.24722
Earth0.97696
Mars0.31342
Jupiter2.37551
Saturn6.9232
Uranus16.4087
Neptune27.3549

Observations

296 total observations over interval: 2000 02 08.43121 – 2024 01 06.281821
These data are available for download (format description).

Date (UT) J2000 RA J2000 Dec Magn Location Ref
2000 02 08.43121 10 04 49.50 +11 29 17.4 19.5 V 691 – Steward Observatory, Kitt Peak-Spacewatch MPS 198791
2000 02 08.45262 10 04 48.32 +11 29 25.2 19.4 V 691 – Steward Observatory, Kitt Peak-Spacewatch MPS 198791
2000 02 08.47389 10 04 47.14 +11 29 33.2 19.2 V 691 – Steward Observatory, Kitt Peak-Spacewatch MPS 198791
2000 02 26.22285 09 48 35.30 +13 18 16.8 19.7 V 691 – Steward Observatory, Kitt Peak-Spacewatch MPS 11303
2000 02 26.24443 09 48 34.13 +13 18 24.2 19.5 V 691 – Steward Observatory, Kitt Peak-Spacewatch MPS 11303
2000 02 26.26609 09 48 32.93 +13 18 32.1 20.0 V 691 – Steward Observatory, Kitt Peak-Spacewatch MPS 11303
2000 03 04.20302 09 43 03.42 +13 55 03.3 19.8 V 691 – Steward Observatory, Kitt Peak-Spacewatch MPS 11303
2000 03 04.23022 09 43 02.19 +13 55 11.3 19.8 V 691 – Steward Observatory, Kitt Peak-Spacewatch MPS 11303
2000 03 04.25594 09 43 01.01 +13 55 18.6 20.2 V 691 – Steward Observatory, Kitt Peak-Spacewatch MPS 11303
2005 08 28.37300 23 01 42.79 -06 43 56.8 22.0 V 291 – LPL/Spacewatch II MPS 198791
2005 08 28.37909 23 01 42.40 -06 43 59.1 21.8 V 291 – LPL/Spacewatch II MPS 198791
2005 08 28.38310 23 01 42.19 -06 44 00.3 21.9 V 291 – LPL/Spacewatch II MPS 198791
2006 11 21.49087 09 24 50.58 +13 54 18.1 21.8 V G96 – Mt. Lemmon Survey MPS 198791
2006 11 21.50116 09 24 51.30 +13 54 14.1 21.9 V G96 – Mt. Lemmon Survey MPS 198791
2006 11 21.51149 09 24 52.05 +13 54 10.8 21.8 V G96 – Mt. Lemmon Survey MPS 198791
2006 12 13.51144 09 46 04.26 +12 12 30.5 21.0 V G96 – Mt. Lemmon Survey MPS 198791
2006 12 13.51591 09 46 04.47 +12 12 29.6 21.2 V G96 – Mt. Lemmon Survey MPS 198791
2006 12 13.52039 09 46 04.58 +12 12 29.1 22.0 V G96 – Mt. Lemmon Survey MPS 198791
2006 12 13.52487 09 46 04.76 +12 12 28.0 21.7 V G96 – Mt. Lemmon Survey MPS 198791
2007 01 10.44713 09 51 51.91 +11 55 16.7 20.3 V G96 – Mt. Lemmon Survey MPS 198791
2007 01 10.45284 09 51 51.80 +11 55 17.5 20.3 V G96 – Mt. Lemmon Survey MPS 198791
2007 01 10.45873 09 51 51.69 +11 55 17.7 20.0 V G96 – Mt. Lemmon Survey MPS 198791
2007 01 10.46500 09 51 51.58 +11 55 18.6 20.7 V G96 – Mt. Lemmon Survey MPS 198791
2007 01 24.40007 09 44 38.04 +12 44 55.0 20.1 V 703 – Catalina Sky Survey MPS 198242
2007 01 24.40850 09 44 37.64 +12 44 57.5 20.1 V 703 – Catalina Sky Survey MPS 198242
2007 01 24.41684 09 44 37.17 +12 44 59.5 20.3 V 703 – Catalina Sky Survey MPS 198242
2007 01 24.42526 09 44 36.78 +12 45 02.7 20.8 V 703 – Catalina Sky Survey MPS 198242
2007 01 27.27516 09 42 26.60 +12 59 06.7 20.1 V G96 – Mt. Lemmon Survey MPS 198242
2007 01 27.28310 09 42 26.20 +12 59 08.9 19.5 V G96 – Mt. Lemmon Survey MPS 198242
2007 01 27.29097 09 42 25.81 +12 59 11.4 20.0 V G96 – Mt. Lemmon Survey MPS 198242
2007 01 27.29891 09 42 25.41 +12 59 14.1 19.6 V G96 – Mt. Lemmon Survey MPS 198242
2007 02 06.33693 09 33 33.01 +13 55 05.9 19.6 V G96 – Mt. Lemmon Survey MPS 198791
2007 02 06.34421 09 33 32.58 +13 55 08.5 19.6 V G96 – Mt. Lemmon Survey MPS 198791
2007 02 06.35151 09 33 32.14 +13 55 11.1 19.5 V G96 – Mt. Lemmon Survey MPS 198791
2007 02 06.35880 09 33 31.71 +13 55 13.8 19.6 V G96 – Mt. Lemmon Survey MPS 198791
2007 02 08.31787 09 31 40.22 +14 06 44.6 19.0 V G96 – Mt. Lemmon Survey MPS 198791
2007 02 08.32460 09 31 39.82 +14 06 46.5 19.4 V G96 – Mt. Lemmon Survey MPS 198791
2007 02 08.33134 09 31 39.43 +14 06 48.7 19.3 V G96 – Mt. Lemmon Survey MPS 198791
2007 02 08.33802 09 31 39.03 +14 06 51.3 19.4 V G96 – Mt. Lemmon Survey MPS 198791
2007 03 10.23521 09 09 11.30 +16 28 09.9 19.7 V G96 – Mt. Lemmon Survey MPS 203152
2007 03 10.24357 09 09 11.08 +16 28 11.3 20.1 V G96 – Mt. Lemmon Survey MPS 203152
2007 03 10.25199 09 09 10.90 +16 28 13.0 20.0 V G96 – Mt. Lemmon Survey MPS 203152
2007 03 10.26036 09 09 10.69 +16 28 14.3 20.2 V G96 – Mt. Lemmon Survey MPS 203152
2007 03 11.21860 09 08 51.54 +16 30 43.1 21.1 V G96 – Mt. Lemmon Survey MPS 203152
2007 03 11.22903 09 08 51.25 +16 30 44.4 20.5 V G96 – Mt. Lemmon Survey MPS 203152
2007 03 11.23897 09 08 51.07 +16 30 46.1 20.3 V G96 – Mt. Lemmon Survey MPS 203152
2007 03 11.24729 09 08 50.89 +16 30 47.3 20.1 V G96 – Mt. Lemmon Survey MPS 203152
2007 04 16.15409 09 19 52.50 +16 11 01.3 21.5 V G96 – Mt. Lemmon Survey MPS 206968
2007 04 16.16063 09 19 52.82 +16 10 59.4 21.0 V G96 – Mt. Lemmon Survey MPS 206968
2007 04 16.16716 09 19 53.11 +16 10 58.6 21.3 V G96 – Mt. Lemmon Survey MPS 206968
2007 04 16.17370 09 19 53.47 +16 10 57.3 21.3 V G96 – Mt. Lemmon Survey MPS 206968
2009 10 11.37939 02 55 22.76 +14 19 41.2 21.6 V G96 – Mt. Lemmon Survey MPS 298353
2009 10 11.38428 02 55 22.58 +14 19 40.5 20.7 V G96 – Mt. Lemmon Survey MPS 298353
2009 10 11.38925 02 55 22.36 +14 19 39.3 20.9 V G96 – Mt. Lemmon Survey MPS 298353
2009 10 22.36639 02 46 39.68 +13 31 30.5 21.2 V G96 – Mt. Lemmon Survey MPS 299433
2009 10 22.37535 02 46 39.21 +13 31 27.7 21.2 V G96 – Mt. Lemmon Survey MPS 299433
2009 10 22.38539 02 46 38.64 +13 31 25.2 20.9 V G96 – Mt. Lemmon Survey MPS 299433
2009 10 22.39427 02 46 38.13 +13 31 21.9 21.3 V G96 – Mt. Lemmon Survey MPS 299433
2009 11 16.27479 02 21 51.76 +11 25 13.9 20.6 V G96 – Mt. Lemmon Survey MPS 303360
2009 11 16.28065 02 21 51.44 +11 25 12.2 20.7 V G96 – Mt. Lemmon Survey MPS 303360
2009 11 16.28648 02 21 51.08 +11 25 10.5 20.9 V G96 – Mt. Lemmon Survey MPS 303360
2009 11 16.29240 02 21 50.72 +11 25 08.7 21.2 V G96 – Mt. Lemmon Survey MPS 303360
2009 11 16.32285 02 21 48.96 +11 25 00.3 20.9 V G96 – Mt. Lemmon Survey MPS 303360
2009 11 16.33050 02 21 48.49 +11 24 58.3 21.2 V G96 – Mt. Lemmon Survey MPS 303360
2009 11 16.33810 02 21 48.09 +11 24 56.2 20.8 V G96 – Mt. Lemmon Survey MPS 303360
2009 11 16.34586 02 21 47.62 +11 24 54.0 20.3 V G96 – Mt. Lemmon Survey MPS 303360
2009 11 16.35673 02 21 47.01 +11 24 51.1 21.2 V G96 – Mt. Lemmon Survey MPS 303360
2009 11 16.36578 02 21 46.47 +11 24 48.9 20.5 V G96 – Mt. Lemmon Survey MPS 303360
2009 11 16.37486 02 21 45.97 +11 24 45.9 20.8 V G96 – Mt. Lemmon Survey MPS 303360
2009 11 16.38567 02 21 45.36 +11 24 43.4 20.1 V G96 – Mt. Lemmon Survey MPS 303360
2011 05 25.29574 15 02 45.52 -14 30 41.2 21.9 V G96 – Mt. Lemmon Survey MPS 383908
2011 05 25.30611 15 02 45.02 -14 30 39.3 21.2 V G96 – Mt. Lemmon Survey MPS 383908
2011 05 25.31650 15 02 44.41 -14 30 37.6 22.2 V G96 – Mt. Lemmon Survey MPS 383908
2011 05 25.32693 15 02 43.83 -14 30 35.3 20.6 V G96 – Mt. Lemmon Survey MPS 383908
2014 01 02.42333 09 24 49.72 +13 51 13.1 20.3 V 691 – Steward Observatory, Kitt Peak-Spacewatch MPS 494955
2014 01 02.44106 09 24 49.37 +13 51 15.8 20.4 V 691 – Steward Observatory, Kitt Peak-Spacewatch MPS 494955
2014 01 02.45879 09 24 49.07 +13 51 17.5 20.8 V 691 – Steward Observatory, Kitt Peak-Spacewatch MPS 494955
2014 01 21.31118 09 14 08.77 +14 54 44.5   691 – Steward Observatory, Kitt Peak-Spacewatch MPS 498247
2014 01 21.33187 09 14 07.82 +14 54 51.0   691 – Steward Observatory, Kitt Peak-Spacewatch MPS 498247
2014 01 21.34961 09 14 06.87 +14 54 56.4   691 – Steward Observatory, Kitt Peak-Spacewatch MPS 498247
2014 01 21.44124 09 14 01.99 +14 55 21.7 20.0 V G96 – Mt. Lemmon Survey MPS 498247
2014 01 21.44731 09 14 01.67 +14 55 23.8 19.9 V G96 – Mt. Lemmon Survey MPS 498247
2014 01 21.45338 09 14 01.35 +14 55 25.4 20.4 V G96 – Mt. Lemmon Survey MPS 498247
2014 01 21.45944 09 14 01.04 +14 55 27.7 19.9 V G96 – Mt. Lemmon Survey MPS 498247
2014 01 25.39088 09 10 35.079 +15 14 57.15 20.3 w F51 – Pan-STARRS 1, Haleakala MPS 499955
2014 01 25.40242 09 10 34.410 +15 15 00.78 20.3 w F51 – Pan-STARRS 1, Haleakala MPS 499955
2014 01 25.41397 09 10 33.744 +15 15 04.39 20.1 w F51 – Pan-STARRS 1, Haleakala MPS 499955
2014 01 25.42547 09 10 33.073 +15 15 08.03 19.9 w F51 – Pan-STARRS 1, Haleakala MPS 499955
2014 01 28.26943 09 07 54.29 +15 29 54.6 19.7 V 703 – Catalina Sky Survey MPS 499955
2014 01 28.27807 09 07 53.70 +15 29 58.8 20.5 V 703 – Catalina Sky Survey MPS 499955
2014 01 28.29532 09 07 52.64 +15 30 04.3 20.2 V 703 – Catalina Sky Survey MPS 499955
2014 01 29.17819 09 07 02.38 +15 34 45.8   691 – Steward Observatory, Kitt Peak-Spacewatch MPS 499955
2014 01 29.19646 09 07 01.26 +15 34 51.7   691 – Steward Observatory, Kitt Peak-Spacewatch MPS 499955
